Wetbulb
74.35 75.79 75.83 75.37 74.56 74.31 74.76 75.71 74.61 75.32 74.96 74.46 73.38 72.82 71.69 73.94 73.82 74.41 75.61 75.41 76.00 74.21 73.85 73.56 76.37 74.62 72.89 74.36 75.40 75.64 74.34 72.25 73.22 73.45 71.68 72.45 73.48 73.13 74.02 75.17 75.66 76.01 76.24
73.17 74.69 74.96 73.90 73.79 73.89 74.32 74.86 74.69 75.07 76.34 75.47 74.84 73.35 73.52 74.25 74.39 75.43 75.30 75.37 75.08 75.32 75.12 74.22 72.40 73.57 72.74 73.57 72.86 72.18 72.02 72.30 74.16 72.06 72.88 66.77 69.81 71.76 73.90 76.54 75.32 75.26 76.48
72.19 74.04 74.50 73.77 73.83 73.93 73.78 74.43 74.81 76.12 76.63 76.62 74.53 74.27 74.23 73.68 72.70 73.67 73.91 73.93 74.71 74.75 74.84 72.96 72.63 72.83 72.02 70.82 71.98 73.50 74.05 73.28 75.80 74.96 71.20 66.27 66.09 67.12 74.11 73.86 73.29 72.87 73.03
72.66 74.39 74.55 74.25 73.93 74.04 74.48 74.66 74.72 76.24 76.62 76.59 74.76 74.25 73.00 72.24 74.22 73.32 73.66 73.67 73.74 73.62 74.17 74.61 73.38 71.63 71.50 72.93 70.84 74.82 75.51 75.15 72.83 74.00 72.42 71.82 70.50 65.01 64.47 70.85 72.43 73.35 72.48
72.31 73.48 74.42 75.04 75.14 74.60 74.35 73.97 74.58 75.24 76.81 76.36 75.73 73.48 73.59 73.93 73.03 72.73 74.09 74.11 73.99 73.25 72.15 70.84 72.61 71.58 73.68 75.25 74.79 75.10 75.19 75.61 73.77 73.60 70.64 70.33 69.34 68.73 67.52 65.12 69.48 70.13 69.88
72.34 73.85 75.62 75.62 74.77 74.87 74.67 74.53 74.60 75.10 76.65 76.26 75.59 75.07 73.83 73.08 72.36 72.98 72.37 73.68 73.43 73.76 72.77 71.03 71.72 71.55 72.16 73.45 72.85 74.30 74.03 74.15 73.75 71.51 69.48 69.28 71.18 70.36 69.64 69.31 69.58 68.10 65.74
72.19 73.29 74.64 73.22 73.97 74.12 74.47 74.80 74.76 74.63 75.68 75.16 75.47 75.29 74.24 73.36 72.23 71.50 71.87 74.17 72.40 73.00 73.58 73.98 73.44 72.06 72.79 71.60 72.21 73.37 73.04 73.01 73.06 73.28 72.51 72.26 72.53 73.80 72.84 72.22 70.52 67.14 65.75
72.14 73.20 74.19 73.62 73.12 74.25 74.79 75.07 74.67 74.65 75.14 74.93 76.37 75.52 75.18 73.26 71.61 73.39 73.59 71.91 71.43 72.55 74.66 74.21 74.42 74.17 73.72 72.57 72.04 73.97 74.02 74.33 74.36 73.58 74.00 74.15 75.57 75.64 74.71 73.09 70.79 64.75 64.15
71.32 72.61 70.36 72.75 74.49 74.38 75.28 75.47 75.13 75.44 75.85 75.86 76.50 75.92 75.35 74.46 73.09 74.75 75.12 72.54 73.96 73.07 73.21 73.41 73.37 73.80 74.04 73.83 73.33 71.74 70.71 71.26 71.97 71.77 72.52 72.32 73.48 72.58 75.87 73.60 72.17 69.00 62.52
68.42 68.58 69.70 72.78 74.61 74.75 75.32 75.60 75.48 75.50 75.92 76.20 76.28 75.67 75.10 75.11 75.10 74.97 73.97 73.30 73.70 73.51 72.96 72.37 72.62 73.27 73.41 73.22 73.71 74.35 72.55 71.91 72.43 72.52 72.99 73.09 72.61 74.12 75.83 74.54 73.39 71.45 70.23
69.30 70.61 70.32 73.99 74.80 74.61 74.67 74.60 74.90 75.64 75.67 76.07 76.39 75.63 74.71 74.79 74.66 74.16 73.50 73.38 73.44 73.24 72.67 72.25 73.52 73.11 72.47 72.69 72.55 72.56 72.00 71.24 71.69 72.29 71.82 72.26 73.20 72.63 74.28 75.22 71.12 72.64 72.49
70.87 69.58 69.10 73.42 73.46 73.80 74.10 74.36 75.31 75.97 75.96 76.38 76.23 75.86 75.23 74.95 74.24 74.07 73.39 74.03 72.92 73.17 72.70 72.10 71.66 72.54 71.94 71.56 71.43 70.55 70.51 70.27 69.59 70.14 70.66 70.90 71.50 72.26 73.75 73.97 72.32 72.45 72.99
69.01 70.39 72.22 73.14 73.44 73.66 73.68 74.42 75.30 75.26 76.04 76.23 75.95 74.65 74.43 74.43 74.64 73.81 73.65 73.53 73.12 72.59 72.43 72.03 71.59 72.18 72.37 70.52 70.70 70.59 70.25 70.10 70.14 69.93 70.42 70.29 70.79 71.29 72.20 72.47 72.64 72.13 71.68
69.91 72.58 73.48 74.06 74.14 74.06 73.92 74.31 74.79 75.27 75.42 75.70 75.12 74.30 74.46 74.43 74.15 74.02 73.61 72.97 73.21 72.83 72.63 72.35 72.18 71.38 70.96 70.54 70.29 69.05 69.12 69.95 70.05 69.96 70.16 69.96 69.86 70.52 70.95 71.24 71.61 71.18 68.56
70.17 73.06 73.68 74.48 75.02 74.54 74.52 74.75 74.93 75.45 75.38 75.44 75.08 74.28 74.93 74.85 74.38 73.58 73.24 73.20 72.94 72.83 73.25 72.17 72.14 71.66 70.81 68.97 70.17 69.09 68.87 69.62 69.66 70.01 70.11 70.14 66.58 65.11 66.53 68.99 71.08 69.01 66.77
70.42 71.19 72.45 74.64 75.30 75.24 74.80 74.97 75.05 75.79 75.83 75.36 74.79 74.68 74.81 74.86 73.95 73.60 73.19 73.14 73.65 73.14 73.07 71.55 71.33 70.81 70.95 60.25 63.31 64.20 69.21 69.12 69.25 69.21 69.27 69.59 65.77 64.39 63.39 64.45 63.49 68.17 67.45
68.01 70.86 71.69 72.21 74.78 76.10 76.24 75.04 75.63 76.71 76.06 75.71 75.29 74.57 74.81 74.12 74.53 74.05 72.88 73.28 73.61 73.57 73.32 72.52 71.47 70.55 70.10 58.83 58.94 61.47 64.15 68.36 68.39 68.83 68.89 68.21 66.86 66.87 67.85 62.80 62.59 63.10 62.99
71.00 70.23 70.38 72.44 72.82 74.97 76.67 76.71 76.14 77.14 76.18 75.73 74.85 74.55 74.48 73.68 73.91 74.24 73.39 73.44 73.64 72.55 72.61 72.05 71.59 70.88 69.38 58.49 56.67 58.88 62.50 67.42 68.05 67.53 68.29 68.81 68.37 67.73 67.13 68.10 67.50 66.78 66.94
71.80 72.59 70.90 71.47 73.11 72.72 75.80 76.36 76.15 75.58 75.19 75.11 74.45 74.31 74.14 73.78 73.25 73.27 74.40 74.18 73.08 72.16 72.10 71.85 70.90 70.52 69.26 56.95 55.51 57.29 62.43 65.68 67.82 67.59 67.46 67.40 67.76 60.59 60.59 67.50 67.18 66.64 66.43
71.50 72.54 72.73 73.31 72.33 73.05 75.81 76.70 75.34 74.52 74.34 74.98 74.27 74.33 74.25 73.85 73.55 73.88 74.34 74.04 72.57 71.83 71.25 71.31 70.34 65.86 68.57 54.85 54.01 55.85 61.83 64.36 66.96 68.54 68.14 59.02 59.83 57.22 56.90 66.24 66.53 65.24 66.29
70.55 71.29 73.95 73.22 75.37 75.35 77.02 75.63 75.07 74.66 75.60 75.25 74.78 74.53 74.41 74.24 74.05 74.68 74.05 72.63 72.03 71.49 71.28 69.84 70.37 69.56 68.12 65.75 52.50 52.13 60.66 63.82 64.36 65.11 66.03 65.76 54.70 53.49 53.39 53.08 66.25 64.07 63.40
68.21 70.14 70.39 72.43 75.11 75.84 76.14 75.90 74.97 75.67 75.96 75.36 74.42 73.87 74.02 73.04 73.21 73.49 73.21 72.12 71.56 70.44 69.37 69.17 68.83 68.91 69.93 59.56 53.28 51.63 52.43 59.44 63.79 64.91 65.81 62.86 50.89 50.01 50.05 53.60 53.95 52.37 56.16
67.76 69.14 69.50 70.11 72.38 74.49 74.95 73.75 75.19 75.52 75.26 74.66 73.83 73.72 73.52 73.09 72.67 71.65 70.41 68.71 69.22 68.65 68.97 67.54 67.22 68.32 68.05 68.48 53.42 51.21 51.23 52.91 60.41 63.29 57.09 54.19 47.94 47.59 49.37 48.68 49.41 48.86 59.23
66.13 67.89 68.82 69.62 71.07 72.66 73.24 72.40 70.91 68.40 71.83 68.22 68.13 69.31 69.98 70.07 70.17 70.36 69.44 68.43 68.65 68.22 67.15 66.77 66.99 69.22 69.47 69.32 68.51 65.45 63.48 55.89 59.52 60.82 63.20 61.21 57.55 55.83 57.82 56.88 52.14 55.32 58.07
66.74 67.69 67.61 69.14 70.29 71.17 70.55 70.95 68.97 70.36 68.60 69.06 67.47 68.51 69.09 68.70 68.10 69.41 68.51 68.95 68.16 65.15 67.04 67.18 67.04 65.73 65.41 63.77 53.94 54.72 62.22 61.78 60.23 60.02 65.80 64.54 64.16 63.06 62.31 61.95 60.96 57.80 58.63
63.11 64.53 66.28 68.27 69.44 69.72 69.75 70.16 70.77 69.93 68.81 67.05 67.73 67.42 67.97 68.13 68.62 68.20 66.44 53.50 53.42 50.91 48.93 46.76 54.15 62.63 50.82 45.85 44.76 43.29 42.73 43.11 44.56 57.57 59.70 60.12 61.37 62.68 63.50 62.88 62.91 62.81 60.85
MSLP
1003.59 1005.23 1006.60 1007.54 1008.30 1008.93 1009.54 1010.17 1010.63 1011.27 1011.63 1011.90 1011.71 1011.51 1011.55 1011.59 1012.24 1012.41 1012.80 1012.82 1012.83 1013.46 1013.88 1014.26 1014.06 1014.37 1014.63 1014.50 1014.31 1014.71 1014.84 1014.65 1014.22 1014.43 1014.22 1014.00 1014.57 1014.44 1014.01 1014.15 1013.95 1014.22 1014.57
1003.02 1004.88 1006.56 1007.61 1008.17 1008.68 1009.39 1010.21 1010.48 1011.13 1011.23 1010.92 1011.25 1011.53 1011.77 1011.85 1012.21 1012.05 1012.46 1012.67 1012.62 1012.86 1013.16 1013.87 1014.39 1014.45 1014.77 1014.81 1014.93 1015.08 1014.78 1014.43 1014.15 1014.59 1015.04 1014.57 1014.73 1014.41 1014.19 1014.56 1014.64 1014.50 1014.70
1002.46 1004.39 1006.04 1007.17 1007.82 1008.25 1009.00 1009.68 1010.35 1010.61 1010.81 1010.50 1011.32 1011.62 1011.79 1011.87 1011.82 1012.08 1012.14 1012.31 1012.53 1012.67 1013.10 1013.76 1014.24 1014.40 1014.73 1014.83 1014.66 1014.70 1014.71 1014.68 1014.62 1014.90 1015.04 1015.29 1015.08 1014.94 1014.55 1014.58 1014.86 1015.06 1014.95
1002.25 1003.87 1005.21 1006.65 1007.34 1007.87 1008.66 1009.33 1010.01 1010.28 1010.41 1010.73 1010.61 1010.80 1010.73 1011.26 1011.33 1011.51 1011.86 1012.14 1012.42 1012.64 1013.01 1013.17 1013.74 1014.22 1014.44 1014.30 1014.48 1014.32 1014.37 1014.59 1014.55 1014.94 1015.04 1015.41 1015.50 1015.30 1014.90 1014.74 1014.86 1015.04 1015.26
1001.70 1003.13 1004.43 1005.82 1006.83 1007.49 1008.16 1008.88 1009.79 1010.25 1010.14 1010.59 1010.57 1010.89 1010.82 1011.19 1011.43 1011.34 1011.92 1012.32 1012.55 1012.80 1013.21 1013.54 1013.63 1013.95 1014.10 1014.12 1014.00 1014.01 1014.07 1014.23 1014.46 1014.63 1014.90 1015.28 1015.24 1015.50 1015.59 1015.06 1014.99 1015.42 1015.88
1001.52 1002.71 1003.88 1005.41 1006.36 1007.11 1007.77 1008.40 1009.35 1010.02 1010.16 1010.48 1010.88 1010.92 1011.02 1011.26 1011.58 1011.93 1011.92 1012.02 1012.07 1012.52 1013.02 1013.29 1013.45 1013.60 1013.93 1013.93 1013.79 1013.82 1013.97 1013.99 1014.11 1014.40 1014.59 1014.80 1014.61 1014.31 1014.64 1014.86 1015.01 1015.60 1016.58
1001.57 1002.61 1003.69 1005.09 1005.98 1006.56 1007.20 1007.87 1008.89 1009.71 1009.93 1010.41 1010.49 1010.80 1011.07 1011.33 1011.51 1011.80 1011.31 1011.54 1011.90 1011.63 1012.24 1012.62 1012.91 1013.27 1013.56 1013.73 1013.67 1013.69 1013.89 1013.97 1013.89 1014.07 1013.80 1013.87 1013.40 1013.32 1013.82 1014.26 1014.84 1015.52 1016.55
1001.42 1002.33 1003.34 1004.32 1005.32 1006.13 1006.74 1007.39 1008.55 1009.31 1009.70 1010.00 1010.18 1010.88 1011.00 1011.12 1011.37 1011.35 1011.03 1010.68 1010.30 1010.86 1011.87 1012.21 1012.47 1012.65 1013.05 1013.37 1013.35 1013.48 1013.48 1013.62 1013.65 1013.58 1013.64 1013.54 1013.34 1013.59 1013.81 1013.92 1014.45 1015.39 1016.11
1001.23 1001.95 1002.64 1003.74 1004.73 1005.60 1006.23 1006.86 1007.97 1008.70 1009.17 1009.38 1009.73 1010.60 1010.79 1011.13 1011.24 1011.40 1011.28 1011.07 1011.06 1010.96 1011.53 1011.61 1011.66 1012.32 1012.68 1012.96 1013.29 1013.39 1013.46 1013.42 1013.29 1013.23 1013.24 1013.24 1013.03 1013.07 1013.19 1013.44 1013.91 1014.23 1015.19
1000.82 1001.53 1002.24 1003.22 1004.13 1005.04 1005.80 1006.40 1007.45 1008.20 1008.65 1008.93 1009.34 1010.10 1010.36 1010.73 1011.00 1011.04 1011.18 1011.10 1011.32 1011.65 1011.58 1011.67 1011.62 1012.02 1012.41 1012.62 1012.84 1012.93 1012.94 1013.10 1012.67 1012.40 1012.37 1012.61 1012.77 1012.72 1012.83 1013.15 1013.28 1013.80 1014.16
1000.43 1001.02 1001.70 1002.64 1003.57 1004.37 1005.17 1006.10 1007.05 1007.77 1008.41 1008.78 1009.00 1009.69 1010.03 1010.54 1010.72 1011.00 1011.19 1011.34 1011.58 1011.76 1011.75 1011.88 1011.94 1012.00 1012.18 1012.37 1012.26 1012.34 1012.44 1012.43 1012.52 1012.40 1012.27 1012.08 1012.34 1012.48 1012.69 1012.65 1012.87 1013.28 1013.66
1000.25 1000.75 1001.49 1002.28 1003.06 1003.75 1004.62 1005.85 1006.76 1007.38 1008.05 1008.47 1008.76 1009.14 1009.85 1010.43 1010.68 1010.75 1011.02 1011.20 1011.60 1011.76 1011.69 1011.69 1011.70 1012.06 1011.97 1011.96 1012.22 1012.27 1011.80 1011.99 1012.16 1012.30 1012.31 1012.07 1012.00 1012.08 1012.29 1012.35 1012.57 1012.83 1013.28
1000.30 1000.75 1001.31 1002.16 1002.87 1003.55 1004.44 1005.43 1006.26 1006.77 1007.37 1008.34 1008.48 1008.67 1009.31 1009.96 1010.23 1010.41 1010.76 1011.23 1011.39 1011.60 1011.56 1011.62 1011.73 1011.76 1011.82 1011.81 1012.00 1012.16 1012.07 1012.05 1012.10 1012.10 1012.18 1012.27 1012.03 1011.99 1012.02 1012.33 1012.41 1012.80 1013.30
1000.59 1000.98 1001.56 1002.23 1002.93 1003.59 1004.25 1004.90 1005.56 1006.01 1006.40 1007.54 1008.18 1008.21 1008.87 1009.42 1009.77 1010.15 1010.53 1011.07 1011.27 1011.38 1011.44 1011.49 1011.67 1011.76 1011.79 1011.89 1011.84 1012.11 1012.19 1012.10 1012.00 1012.27 1012.28 1012.04 1012.13 1012.31 1012.37 1012.55 1012.63 1013.06 1013.51
1001.06 1001.25 1001.85 1002.45 1003.13 1003.76 1004.29 1004.66 1005.06 1005.62 1005.96 1006.93 1007.49 1007.90 1008.33 1008.90 1009.40 1009.86 1010.13 1010.48 1010.81 1010.94 1011.18 1011.52 1011.66 1011.82 1011.89 1011.87 1012.02 1012.16 1012.18 1012.15 1011.99 1012.03 1012.14 1012.36 1013.00 1013.08 1013.12 1013.01 1012.90 1013.43 1013.92
1001.28 1001.57 1001.95 1002.31 1002.95 1003.58 1004.01 1004.40 1004.84 1005.27 1005.70 1006.53 1007.10 1007.72 1008.17 1008.78 1009.17 1009.62 1010.04 1010.32 1010.72 1010.99 1011.25 1011.37 1011.57 1012.06 1012.21 1012.53 1012.63 1012.60 1012.03 1012.05 1011.92 1011.92 1012.06 1012.33 1012.84 1013.12 1013.53 1013.68 1013.63 1013.66 1013.96
1001.82 1001.83 1001.97 1002.18 1002.56 1003.11 1003.67 1003.95 1004.53 1005.07 1005.34 1005.98 1006.47 1007.20 1007.64 1008.10 1008.79 1009.44 1009.80 1010.17 1010.42 1010.78 1011.03 1011.32 1011.54 1011.97 1012.51 1012.97 1013.03 1012.98 1012.89 1012.09 1011.98 1011.98 1012.05 1012.05 1012.31 1012.97 1013.28 1013.83 1013.94 1014.06 1014.18
1002.89 1002.75 1002.17 1002.08 1002.37 1002.55 1003.03 1003.63 1004.04 1004.69 1005.15 1005.91 1006.28 1007.03 1007.51 1007.94 1008.29 1008.61 1009.15 1009.83 1010.25 1010.60 1010.92 1011.20 1011.49 1011.80 1012.52 1013.08 1013.38 1013.45 1013.15 1012.73 1012.26 1012.12 1012.13 1012.27 1012.58 1012.94 1013.10 1013.11 1013.32 1013.73 1014.21
1003.76 1003.46 1003.09 1002.49 1002.35 1002.40 1002.68 1003.17 1003.59 1004.34 1005.05 1005.52 1006.03 1006.76 1007.21 1007.51 1007.94 1008.14 1008.51 1009.00 1009.79 1010.46 1010.69 1010.87 1011.29 1011.60 1012.20 1012.92 1013.45 1013.64 1013.42 1012.94 1012.49 1012.39 1012.52 1012.75 1012.81 1013.47 1013.71 1013.19 1013.12 1013.71 1014.13
1004.21 1004.06 1003.54 1002.78 1002.46 1002.56 1002.51 1003.03 1003.66 1004.63 1005.04 1005.22 1005.77 1006.50 1007.00 1007.26 1007.54 1007.93 1008.22 1008.94 1009.15 1009.86 1010.14 1010.60 1010.99 1011.37 1011.99 1012.68 1013.32 1013.74 1013.71 1013.29 1012.61 1012.63 1012.87 1013.26 1013.57 1013.70 1013.90 1013.69 1013.38 1013.38 1013.54
1004.26 1004.63 1003.92 1003.28 1002.85 1002.57 1002.89 1003.43 1003.90 1004.13 1004.35 1004.75 1005.58 1006.28 1006.70 1007.09 1007.43 1007.87 1008.35 1008.67 1009.01 1008.63 1009.94 1010.40 1010.74 1011.36 1012.00 1012.18 1013.01 1013.76 1013.84 1013.59 1013.15 1012.73 1012.65 1012.90 1013.34 1013.69 1013.84 1013.98 1013.72 1013.68 1013.70
1004.84 1005.12 1004.97 1004.47 1004.27 1003.69 1003.44 1003.40 1003.62 1004.14 1004.32 1004.96 1005.76 1006.38 1006.84 1006.98 1007.34 1008.21 1008.64 1008.51 1008.63 1009.05 1009.51 1010.35 1010.55 1010.50 1011.29 1012.19 1012.61 1013.29 1013.81 1013.73 1013.74 1013.27 1012.77 1012.73 1013.22 1013.70 1014.01 1014.24 1014.12 1014.02 1013.66
1005.45 1005.26 1005.43 1005.24 1004.69 1004.45 1004.34 1003.78 1003.08 1003.24 1004.02 1005.05 1006.07 1006.69 1007.13 1007.40 1008.18 1008.28 1008.60 1009.00 1009.27 1009.02 1008.80 1009.75 1009.94 1009.77 1010.88 1011.40 1012.40 1012.84 1013.29 1013.68 1013.90 1013.43 1013.45 1013.69 1013.85 1014.08 1014.25 1014.29 1014.29 1014.36 1013.95
1005.96 1005.50 1005.51 1005.44 1004.94 1004.96 1004.92 1004.33 1002.70 1001.59 1004.78 1005.70 1005.99 1007.60 1007.89 1008.04 1008.28 1008.10 1008.11 1008.46 1008.68 1009.08 1009.55 1009.73 1010.04 1010.25 1010.89 1011.09 1011.97 1012.69 1013.19 1013.38 1013.48 1013.38 1013.34 1013.47 1013.72 1013.81 1013.64 1013.75 1014.18 1014.03 1013.50
1006.52 1005.95 1005.53 1005.38 1005.05 1005.37 1005.58 1005.50 1005.73 1005.76 1006.18 1005.76 1006.58 1007.90 1007.94 1008.13 1008.22 1007.91 1008.10 1008.13 1008.69 1009.44 1009.81 1010.01 1010.18 1010.07 1010.57 1011.77 1012.51 1013.00 1013.00 1012.99 1013.02 1012.83 1012.34 1012.34 1012.63 1012.89 1013.03 1012.88 1012.78 1013.10 1012.91
1008.15 1007.37 1006.73 1005.74 1005.31 1005.30 1005.57 1005.77 1005.95 1006.53 1006.78 1006.97 1007.02 1007.32 1007.42 1007.67 1007.74 1008.00 1008.60 1009.14 1009.17 1009.94 1010.55 1011.06 1011.16 1010.91 1011.77 1012.51 1012.86 1013.21 1013.28 1013.17 1013.13 1013.11 1012.75 1012.64 1012.57 1012.39 1012.09 1011.94 1011.85 1011.95 1012.23
Wind_Speed
15 14 12 11 10 8 9 10 10 10 8 7 6 5 4 3 3 6 10 12 11 13 11 6 6 7 7 8 4 4 7 7 5 4 7 6 8 11 10 5 6 2 6
16 15 14 11 10 10 9 9 9 10 8 5 3 2 0 1 2 2 3 7 10 8 8 7 2 4 4 6 6 5 8 10 6 4 3 7 3 6 6 4 6 4 4
16 15 15 12 11 10 10 9 10 11 9 7 5 5 5 4 4 4 4 4 4 4 8 9 6 5 4 4 4 6 11 8 5 7 5 2 3 1 2 5 2 2 5
15 15 15 14 11 10 10 9 10 10 9 8 6 2 4 3 5 3 2 4 4 4 5 6 8 5 5 8 7 8 9 9 7 4 6 6 1 1 3 2 2 1 2
16 16 15 14 12 11 10 10 10 11 9 9 6 6 3 2 2 4 5 2 4 4 6 4 5 4 5 7 9 9 8 7 6 6 3 2 4 5 3 5 3 2 3
13 14 12 11 11 11 10 10 11 10 9 8 8 5 3 2 1 1 3 3 5 7 8 5 4 2 4 5 4 4 6 5 5 2 3 4 5 7 7 6 5 2 2
13 13 16 13 12 13 11 10 10 10 10 9 8 6 6 3 5 5 7 4 7 7 8 9 8 6 5 5 5 4 6 6 7 8 8 10 12 4 5 5 4 2 2
13 14 13 12 13 14 12 10 11 10 10 10 7 5 7 4 6 9 2 7 3 5 8 9 8 7 6 3 2 3 4 6 6 8 7 6 6 5 6 6 5 3 3
14 15 13 13 15 14 12 11 12 11 11 10 7 7 8 7 6 5 6 5 3 3 3 4 4 5 7 7 6 4 2 4 4 5 5 5 6 7 7 6 5 4 5
13 12 12 14 14 14 11 10 12 11 10 8 6 6 8 7 8 5 5 1 2 3 1 4 4 4 6 6 6 6 7 4 5 5 5 5 5 5 2 5 6 6 4
13 10 12 14 14 14 12 11 11 11 9 8 7 6 6 8 6 6 5 5 3 3 4 2 3 1 2 4 3 4 3 5 4 4 5 6 5 6 3 5 4 5 4
12 9 12 13 13 13 12 11 10 10 10 7 6 8 8 8 6 6 5 5 4 4 4 3 2 3 6 2 4 6 3 4 3 3 4 6 4 2 4 4 6 5 4
9 12 13 13 11 11 12 12 11 11 11 9 9 7 9 7 6 7 6 5 5 5 6 4 4 3 3 3 4 5 5 4 4 3 3 4 4 4 2 3 4 4 4
10 11 11 12 12 12 13 14 13 12 10 11 9 7 9 8 8 7 6 6 6 6 5 5 4 4 4 4 4 3 5 5 4 2 4 3 2 3 1 2 4 5 7
9 10 11 11 12 12 12 13 12 11 9 11 10 8 8 8 8 8 7 7 7 7 5 3 3 5 5 4 4 4 4 5 4 2 5 7 6 8 8 2 4 7 6
7 9 11 12 13 13 13 13 12 11 10 10 9 8 9 7 8 6 7 6 4 4 4 6 5 5 7 8 6 3 6 4 4 4 3 5 5 6 6 6 11 2 8
3 7 9 11 12 14 13 13 13 12 12 11 11 11 11 11 9 7 7 6 4 5 4 4 5 6 4 3 1 2 6 5 4 3 3 6 7 4 6 4 4 6 7
9 7 9 10 11 13 14 14 15 12 11 10 11 11 11 11 10 9 8 5 3 2 3 5 4 5 2 3 3 5 4 7 4 4 4 5 3 4 4 6 5 4 5
9 9 8 9 9 13 13 15 14 12 13 12 11 12 12 11 8 9 7 7 3 3 3 2 2 5 5 6 6 3 5 7 5 3 3 4 3 6 5 6 5 5 4
10 12 13 9 8 11 12 13 11 13 12 14 13 12 11 12 11 9 7 6 5 4 4 1 4 1 5 9 7 5 5 7 5 4 4 2 3 6 2 4 1 4 5
12 13 13 9 10 10 8 12 13 15 14 13 12 12 11 10 8 8 6 7 6 4 1 2 1 3 5 5 8 6 5 5 5 4 5 5 10 7 5 3 7 1 5
13 11 11 11 11 10 10 13 14 14 12 11 11 11 10 8 8 8 8 7 5 4 4 4 4 5 3 5 10 9 8 8 6 6 6 4 10 8 6 5 3 1 4
10 8 7 10 10 10 10 13 15 14 11 12 8 8 7 6 7 7 6 5 5 5 4 3 5 4 4 5 7 12 9 8 8 6 3 8 3 4 5 8 3 4 7
13 10 9 9 10 8 8 7 2 12 6 7 10 5 6 8 9 7 8 5 3 1 1 5 5 2 4 2 4 7 7 10 8 9 9 6 4 9 6 6 7 7 8
13 13 9 11 9 3 2 4 4 6 7 6 7 8 6 7 6 4 3 3 4 4 3 2 3 4 3 4 7 5 5 6 6 8 7 7 9 9 9 9 9 8 8
14 14 13 15 10 10 10 8 9 10 7 5 7 7 8 8 8 7 7 7 12 8 7 3 4 4 11 8 7 5 4 5 5 1 3 5 7 7 6 6 10 10 10
Wind_Direction
164 154 156 161 168 163 164 172 177 171 187 173 183 170 231 176 244 227 238 237 229 204 207 230 205 202 230 270 263 237 256 278 280 337 274 280 288 267 265 239 243 289 258
164 160 161 179 174 166 168 179 175 176 198 175 136 151 244 112 277 304 230 230 222 220 209 208 214 213 225 226 227 246 252 235 270 236 283 270 284 275 250 251 256 293 269
178 170 171 186 186 169 173 177 186 186 197 134 153 162 153 170 191 192 169 154 170 199 199 194 222 200 197 232 251 244 240 248 240 226 232 225 251 247 273 227 214 317 298
183 174 183 186 193 186 171 171 191 200 188 184 179 196 316 41 36 116 124 158 205 201 188 191 194 209 224 240 236 241 238 238 240 211 216 232 244 332 327 235 157 107 5
184 183 186 185 191 194 179 175 188 206 193 183 226 184 236 76 116 202 133 188 166 202 193 197 238 253 256 254 249 249 237 228 234 218 163 212 244 231 225 278 217 152 39
181 178 164 167 184 188 183 182 176 201 204 201 205 212 150 123 165 336 231 168 188 174 185 195 201 200 258 264 283 258 250 235 227 186 180 206 235 223 219 242 228 150 61
177 179 166 173 183 183 185 180 176 193 198 197 198 211 199 189 184 221 215 203 214 172 180 193 196 198 221 237 226 236 226 231 227 228 226 220 234 273 258 247 216 142 129
178 174 174 187 185 185 185 186 167 190 194 196 190 195 194 201 206 214 269 252 285 112 160 198 197 198 197 215 278 257 253 247 240 244 254 275 282 232 228 228 201 121 132
174 173 179 169 174 183 182 180 165 185 186 192 167 175 193 192 217 221 212 209 281 126 186 226 241 187 192 193 175 190 228 251 231 221 226 232 251 232 211 213 204 181 160
168 167 168 169 173 179 178 176 164 182 182 189 173 172 183 197 199 204 215 51 127 307 328 260 263 169 198 194 208 210 192 245 256 244 209 239 263 289 281 243 215 210 229
185 171 174 167 174 174 173 172 168 168 176 196 158 165 188 186 168 198 182 193 202 227 233 212 288 327 23 283 243 257 231 219 259 273 268 262 239 259 227 235 209 209 202
186 168 172 161 175 173 164 167 169 168 179 177 183 169 169 182 184 197 178 178 195 199 215 217 204 257 228 280 279 262 303 265 263 295 264 285 301 298 265 243 199 194 183
176 165 167 164 177 169 165 173 177 179 168 180 194 181 156 183 177 182 185 176 195 211 216 208 202 226 256 267 254 303 283 261 247 257 293 292 282 282 340 274 198 174 143
169 168 166 172 180 175 179 184 183 186 179 162 201 174 168 172 185 179 178 188 216 226 232 233 242 256 259 274 246 265 268 269 232 267 268 275 1 315 30 343 158 148 130
181 178 187 183 186 186 192 192 188 192 180 163 212 171 187 174 183 175 184 201 214 229 242 237 247 264 240 261 197 241 253 248 246 195 258 63 52 47 44 0 157 147 150
215 212 211 203 198 197 198 196 195 187 186 172 201 177 179 174 183 181 196 211 199 236 239 254 247 255 280 46 53 350 299 259 266 234 228 136 132 94 64 57 58 109 164
339 241 232 222 218 202 206 201 194 191 189 183 189 182 177 178 175 184 198 206 211 237 219 263 265 277 270 126 119 322 301 284 249 264 241 262 99 198 137 105 109 85 59
358 334 290 230 227 218 204 209 191 189 189 185 188 180 182 181 181 185 190 217 238 256 238 246 263 256 165 169 249 281 291 291 255 272 274 286 139 44 341 174 148 157 175
1 336 305 289 234 242 213 202 191 176 192 190 183 184 187 181 179 189 180 193 210 221 259 280 278 242 210 175 226 250 278 279 257 235 263 310 269 97 11 294 154 155 158
12 350 326 299 253 232 217 201 187 193 189 191 183 186 190 186 187 187 171 157 161 198 243 239 265 232 259 154 204 218 252 277 248 213 185 194 64 153 166 275 179 226 187
-0 357 326 311 312 206 210 206 207 202 195 181 179 181 182 189 184 182 151 172 179 133 168 263 293 236 254 171 179 229 256 286 293 256 201 198 168 186 197 256 302 352 303
343 7 334 324 315 286 239 209 197 203 194 172 173 179 177 191 158 172 178 183 161 146 175 252 244 234 223 212 180 199 235 287 301 308 308 107 155 174 189 225 178 323 285
339 334 321 304 295 281 256 241 215 175 165 165 162 158 155 161 157 157 133 162 177 257 191 238 251 253 209 194 185 190 207 246 264 262 55 32 166 163 203 243 252 251 246
321 319 301 273 282 277 295 307 352 42 120 130 105 133 158 169 173 172 161 212 230 249 254 265 259 263 216 206 180 204 212 231 245 244 252 236 208 220 246 198 207 232 247
324 314 293 273 266 234 309 156 137 167 196 149 126 183 173 187 167 214 157 184 72 56 317 292 307 323 284 25 68 36 339 337 350 330 250 230 228 235 226 233 216 213 230
356 340 312 298 245 237 204 222 191 195 189 183 180 187 178 193 184 175 145 69 93 98 104 97 16 55 85 97 80 45 4 1 10 286 249 261 277 276 263 245 233 228 219